Brunswick, GA

4:21 PM EDT on August 27, 2016 (GMT -0400)
Glynco Jetport

Weather History for KBQK - December, 2010

Change the Weather History Date:

Monday, December 27, 2010

  Actual Average Record
Temperature  
Mean Temperature 38 °F -  
Max Temperature 48 °F 59 °F 80 °F (1987)
Min Temperature 29 °F 39 °F 15 °F (1983)
Degree Days  
Heating Degree Days 26    
Moisture  
Dew Point 21 °F    
Average Humidity 55    
Maximum Humidity 73    
Minimum Humidity 32    
Precipitation  
Precipitation 0.00 in - - ()
Sea Level Pressure  
Sea Level Pressure 30.12 in    
Wind  
Wind Speed 10 mph (WNW)    
Max Wind Speed 16 mph    
Max Gust Speed 25 mph    
Visibility 10 miles    
Events      
Averages and records for this station are not official NWS values.
T = Trace of Precipitation, MM = Missing Value Source: NWS Daily Summary

Daily Weather History Graph

Daily Weather History Graph

Search for Another Location

Airport or City:

Trip Planner

Search our weather history database for the weather conditions in past years. The results will help you decide how hot, cold, wet, or windy it might be!

Date:

Astronomy

Dec. 27, 2010 Rise Set
Actual Time 7:23 AM EST 5:30 PM EST
Civil Twilight 6:56 AM EST 5:57 PM EST
Nautical Twilight 6:26 AM EST 6:27 PM EST
Astronomical Twilight 5:56 AM EST 6:57 PM EST
Moon No Moon Rise 11:39 AM EST
Length of Visible Light 11h 01m
Length of Day
10h 07m
Waning Gibbous, 55% of the Moon is Illuminated
Dec 27
Waning Gibbous
Dec 27
Last Quarter
Jan 4
New
Jan 12
First Quarter
Jan 19
Full

Hourly Weather History & Observations

Time (EST) Temp. Windchill Dew Point Humidity Pressure Visibility Wind Dir Wind Speed Gust Speed Precip Events Conditions
12:17 AM 34.7 °F 26.4 °F 22.3 °F 61% 30.03 in 10.0 mi WNW 11.5 mph 25.3 mph N/A   Overcast
12:37 AM 33.8 °F 24.3 °F 21.9 °F 62% 30.03 in 10.0 mi WNW 13.8 mph 21.9 mph N/A   Overcast
12:57 AM 32.9 °F 25.3 °F 22.1 °F 65% 30.03 in 10.0 mi WNW 9.2 mph 19.6 mph N/A   Scattered Clouds
1:17 AM 32.2 °F 23.2 °F 22.5 °F 67% 30.03 in 10.0 mi WNW 11.5 mph 19.6 mph N/A   Scattered Clouds
1:37 AM 32.0 °F 23.0 °F 21.9 °F 66% 30.04 in 10.0 mi WNW 11.5 mph 17.3 mph N/A   Scattered Clouds
1:57 AM 31.8 °F 23.3 °F 21.6 °F 66% 30.04 in 10.0 mi West 10.4 mph - N/A   Clear
2:17 AM 31.5 °F 24.2 °F 21.6 °F 67% 30.04 in 10.0 mi WNW 8.1 mph - N/A   Clear
2:37 AM 31.1 °F 23.7 °F 21.2 °F 67% 30.05 in 10.0 mi West 8.1 mph 19.6 mph N/A   Clear
2:57 AM 31.1 °F 23.1 °F 21.2 °F 67% 30.05 in 10.0 mi West 9.2 mph - N/A   Clear
3:17 AM 30.6 °F 22.4 °F 21.2 °F 68% 30.06 in 10.0 mi WNW 9.2 mph - N/A   Clear
3:37 AM 30.7 °F 22.6 °F 21.2 °F 68% 30.06 in 10.0 mi WNW 9.2 mph 16.1 mph N/A   Clear
3:57 AM 30.2 °F 21.3 °F 21.6 °F 70% 30.06 in 10.0 mi WNW 10.4 mph - N/A   Clear
4:17 AM 30.2 °F 21.3 °F 21.6 °F 70% 30.06 in 10.0 mi WNW 10.4 mph 17.3 mph N/A   Clear
4:37 AM 30.2 °F 22.6 °F 21.6 °F 70% 30.06 in 10.0 mi WNW 8.1 mph 18.4 mph N/A   Clear
4:57 AM 30.0 °F 21.7 °F 21.7 °F 71% 30.06 in 10.0 mi WNW 9.2 mph 18.4 mph N/A   Clear
5:17 AM 29.7 °F 21.3 °F 21.7 °F 72% 30.06 in 10.0 mi West 9.2 mph - N/A   Clear
5:37 AM 29.7 °F 22.0 °F 21.7 °F 72% 30.07 in 10.0 mi WNW 8.1 mph - N/A   Clear
5:57 AM 29.5 °F 19.9 °F 21.6 °F 72% 30.08 in 10.0 mi WNW 11.5 mph 16.1 mph N/A   Clear
6:17 AM 29.3 °F 22.3 °F 21.4 °F 72% 30.08 in 10.0 mi WNW 6.9 mph - N/A   Clear
6:37 AM 29.3 °F 20.2 °F 21.2 °F 72% 30.09 in 10.0 mi WNW 10.4 mph - N/A   Clear
6:57 AM 29.3 °F 20.8 °F 21.6 °F 73% 30.11 in 10.0 mi WNW 9.2 mph - N/A   Clear
7:17 AM 29.3 °F 22.3 °F 21.4 °F 72% 30.12 in 10.0 mi WNW 6.9 mph - N/A   Clear
7:37 AM 29.5 °F 21.1 °F 21.4 °F 72% 30.13 in 10.0 mi WNW 9.2 mph - N/A   Clear
7:57 AM 30.2 °F 22.6 °F 21.6 °F 70% 30.14 in 10.0 mi WNW 8.1 mph - N/A   Clear
8:17 AM 31.1 °F 21.9 °F 21.9 °F 69% 30.15 in 10.0 mi WNW 11.5 mph 21.9 mph N/A   Clear
8:37 AM 32.0 °F 24.2 °F 21.9 °F 66% 30.15 in 10.0 mi WNW 9.2 mph 16.1 mph N/A   Clear
8:57 AM 32.0 °F 23.6 °F 21.2 °F 64% 30.16 in 10.0 mi WNW 10.4 mph 24.2 mph N/A   Clear
9:17 AM 33.8 °F 25.8 °F 21.7 °F 61% 30.16 in 10.0 mi WNW 10.4 mph 20.7 mph N/A   Clear
9:37 AM 34.9 °F 26.2 °F 21.7 °F 59% 30.16 in 10.0 mi NW 12.7 mph 19.6 mph N/A   Clear
9:57 AM 36.0 °F 28.0 °F 21.7 °F 56% 30.18 in 10.0 mi NW 11.5 mph 19.6 mph N/A   Clear
10:17 AM 36.7 °F 27.6 °F 20.8 °F 53% 30.18 in 10.0 mi NW 15.0 mph 20.7 mph N/A   Clear
10:37 AM 38.1 °F 29.1 °F 21.0 °F 50% 30.18 in 10.0 mi WNW 16.1 mph 20.7 mph N/A   Clear
10:57 AM 39.2 °F 31.2 °F 21.2 °F 49% 30.18 in 10.0 mi WNW 13.8 mph 18.4 mph N/A   Clear
11:17 AM 40.3 °F 33.0 °F 21.2 °F 47% 30.17 in 10.0 mi WNW 12.7 mph 20.7 mph N/A   Clear
11:37 AM 41.2 °F 35.0 °F 20.8 °F 44% 30.16 in 10.0 mi WNW 10.4 mph 18.4 mph N/A   Clear
11:57 AM 42.8 °F 35.8 °F 21.7 °F 43% 30.16 in 10.0 mi West 13.8 mph 20.7 mph N/A   Clear
12:17 PM 43.0 °F 36.0 °F 20.8 °F 41% 30.15 in 10.0 mi West 13.8 mph 21.9 mph N/A   Clear
12:37 PM 45.0 °F 38.5 °F 21.6 °F 40% 30.15 in 10.0 mi WNW 13.8 mph 19.6 mph N/A   Clear
12:57 PM 45.5 °F 41.3 °F 20.5 °F 37% 30.14 in 10.0 mi West 8.1 mph 19.6 mph N/A   Clear
1:17 PM 46.6 °F - 20.7 °F 36% 30.13 in 10.0 mi WNW 12.7 mph 20.7 mph N/A   Clear
1:37 PM 46.8 °F - 20.1 °F 35% 30.13 in 10.0 mi WNW 15.0 mph 25.3 mph N/A   Clear
1:57 PM 47.1 °F - 19.6 °F 34% 30.13 in 10.0 mi NW 12.7 mph 23.0 mph N/A   Clear
2:17 PM 47.8 °F - 20.1 °F 33% 30.12 in 10.0 mi NW 10.4 mph 23.0 mph N/A   Clear
2:37 PM 47.8 °F - 19.8 °F 33% 30.13 in 10.0 mi NW 11.5 mph 20.7 mph N/A   Clear
2:57 PM 48.4 °F - 20.5 °F 33% 30.13 in 10.0 mi West 15.0 mph 20.7 mph N/A   Clear
3:17 PM 48.2 °F - 19.4 °F 32% 30.14 in 10.0 mi WNW 12.7 mph 21.9 mph N/A   Clear
3:37 PM 47.7 °F - 19.8 °F 33% 30.15 in 10.0 mi WNW 10.4 mph 17.3 mph N/A   Clear
3:57 PM 47.3 °F - 20.3 °F 34% 30.15 in 10.0 mi WNW 8.1 mph 18.4 mph N/A   Clear
4:17 PM 47.3 °F - 20.3 °F 34% 30.15 in 10.0 mi WNW 11.5 mph 18.4 mph N/A   Clear
4:37 PM 46.6 °F - 20.5 °F 36% 30.16 in 10.0 mi WNW 10.4 mph - N/A   Clear
4:57 PM 45.7 °F 41.5 °F 20.3 °F 37% 30.17 in 10.0 mi WNW 8.1 mph 17.3 mph N/A   Clear
5:17 PM 44.4 °F 40.5 °F 20.7 °F 39% 30.17 in 10.0 mi WNW 6.9 mph - N/A   Clear
5:37 PM 42.6 °F 39.9 °F 22.1 °F 44% 30.18 in 10.0 mi WNW 4.6 mph - N/A   Clear
5:57 PM 40.6 °F 37.5 °F 22.8 °F 49% 30.19 in 10.0 mi West 4.6 mph - N/A   Clear
6:17 PM 41.0 °F 39.0 °F 23.0 °F 49% 30.21 in 10.0 mi West 3.5 mph - N/A   Clear
6:37 PM 40.1 °F 36.9 °F 23.2 °F 51% 30.22 in 10.0 mi WNW 4.6 mph - N/A   Clear
6:57 PM 39.4 °F - 23.7 °F 54% 30.22 in 10.0 mi Calm Calm - N/A   Clear
7:17 PM 35.6 °F 31.7 °F 27.7 °F 73% 30.23 in 10.0 mi West 4.6 mph - N/A   Clear
7:37 PM 37.0 °F 34.5 °F 24.6 °F 61% 30.23 in 10.0 mi West 3.5 mph - N/A   Clear
7:57 PM 35.8 °F 31.9 °F 25.0 °F 65% 30.24 in 10.0 mi West 4.6 mph - N/A   Clear
8:17 PM 36.1 °F 33.5 °F 23.7 °F 61% 30.24 in 10.0 mi WNW 3.5 mph - N/A   Clear
8:37 PM 36.9 °F 34.3 °F 23.0 °F 57% 30.25 in 10.0 mi WNW 3.5 mph - N/A   Clear
8:57 PM 35.6 °F - 23.9 °F 62% 30.26 in 10.0 mi Calm Calm - N/A   Clear
9:17 PM 33.8 °F 30.8 °F 25.2 °F 71% 30.26 in 10.0 mi West 3.5 mph - N/A   Clear
9:37 PM 33.3 °F 28.9 °F 25.2 °F 72% 30.27 in 10.0 mi West 4.6 mph - N/A   Clear
9:57 PM 34.3 °F 30.2 °F 23.4 °F 64% 30.28 in 10.0 mi West 4.6 mph - N/A   Clear
10:17 PM 34.3 °F 31.4 °F 22.8 °F 63% 30.28 in 10.0 mi WNW 3.5 mph - N/A   Clear
10:37 PM 34.0 °F 31.0 °F 22.6 °F 63% 30.29 in 10.0 mi WNW 3.5 mph - N/A   Clear
10:57 PM 34.0 °F 31.0 °F 22.6 °F 63% 30.29 in 10.0 mi WNW 3.5 mph - N/A   Clear
11:17 PM 32.9 °F 28.5 °F 22.6 °F 66% 30.29 in 10.0 mi West 4.6 mph - N/A   Clear
11:37 PM 32.7 °F - 22.6 °F 66% 30.29 in 10.0 mi Calm Calm - N/A   Clear
11:57 PM 32.4 °F 29.1 °F 22.3 °F 66% 30.29 in 10.0 mi WNW 3.5 mph - N/A   Clear